Terminal Aerodrome Forecast
Issued by NWS Sioux Falls, SD

Home | Current Version | Previous Version | Text Only | Print | Product List | Glossary On
Versions: 1 2 3 4 5 6 7 8 9 10 11 12 13 14 15 16 17 18 19 20 21 22 23 24 25
626
FTUS43 KFSD 121530 AAB
TAFFSD
TAF AMD
KFSD 121530Z 1216/1312 35012KT P6SM SCT012 SCT090
     FM121700 35013G20KT P6SM FEW250
     FM130000 36009KT P6SM SCT250
     FM130200 01005KT P6SM SCT250
     FM131100 11004KT P6SM BKN150=

USA.gov is the U.S. government's official web portal to all federal, state and local government web resources and services.